When you browse on this site, cookies collect data to enhance your experience and personalize the content and advertising you see.
Visit our Privacy Policy to learn more. By continuing to use the site, you agree to this use of cookies and data.
  • In Romania
  • List of Countries
  • For 7 days
  • Water Temperature
  • Weather Map
  • Weather Widgets
  • user-avatar
    Login

    Hourly Weather Erd

    Today, 12 November, Tuesday

    Time Temperature Precipitation Wind Pressure Humidity
    00:00 +5°C° 0 mm 3 mps 750 mmHg 82%
    01:00 +5°C° 0 mm 3 mps 750 mmHg 83%
    02:00 +5°C° 0 mm 3 mps 750 mmHg 85%
    03:00 +5°C° 0 mm 3 mps 749 mmHg 86%
    04:00 +5°C° 0 mm 3 mps 749 mmHg 87%
    05:00 +5°C° 0 mm 4 mps 749 mmHg 88%
    06:00 +5°C° 0 mm 4 mps 748 mmHg 88%
    07:00 +5°C° 0 mm 4 mps 748 mmHg 88%
    08:00 +6°C° 0.4 mm 4 mps 748 mmHg 87%
    09:00 +6°C° 0.4 mm 4 mps 747 mmHg 85%
    10:00 +8°C° 0.4 mm 3 mps 747 mmHg 84%
    11:00 +7°C° 0.7 mm 4 mps 747 mmHg 82%
    12:00 +7°C° 0.7 mm 4 mps 746 mmHg 80%
    13:00 +8°C° 0.7 mm 4 mps 746 mmHg 79%
    14:00 +8°C° 0.4 mm 4 mps 745 mmHg 80%
    15:00 +8°C° 0.4 mm 4 mps 745 mmHg 81%
    16:00 +8°C° 0.4 mm 4 mps 744 mmHg 82%
    17:00 +8°C° 0.5 mm 4 mps 744 mmHg 82%
    18:00 +10°C° 0.5 mm 4 mps 744 mmHg 83%
    19:00 +10°C° 0.5 mm 4 mps 744 mmHg 83%
    20:00 +11°C° 0.1 mm 4 mps 744 mmHg 82%
    21:00 +12°C° 0.1 mm 4 mps 743 mmHg 82%
    22:00 +13°C° 0.1 mm 4 mps 743 mmHg 82%
    23:00 +13°C° 0.1 mm 4 mps 743 mmHg 83%

    Tomorrow, 13 November, Wednesday

    Time Temperature Precipitation Wind Pressure Humidity
    00:00 +13°C° 0.1 mm 3 mps 743 mmHg 84%
    01:00 +13°C° 0.1 mm 3 mps 743 mmHg 85%
    02:00 +13°C° 2.5 mm 3 mps 743 mmHg 89%
    03:00 +12°C° 2.5 mm 3 mps 742 mmHg 93%
    04:00 +13°C° 2.5 mm 2 mps 742 mmHg 98%
    05:00 +12°C° 1.4 mm 3 mps 742 mmHg 96%
    06:00 +12°C° 1.4 mm 3 mps 742 mmHg 95%
    07:00 +12°C° 1.4 mm 4 mps 742 mmHg 94%
    08:00 +12°C° 0.2 mm 5 mps 742 mmHg 90%
    09:00 +13°C° 0.2 mm 5 mps 742 mmHg 86%
    10:00 +13°C° 0.2 mm 6 mps 742 mmHg 83%
    11:00 +14°C° 0 mm 6 mps 741 mmHg 79%
    12:00 +15°C° 0 mm 7 mps 741 mmHg 76%
    13:00 +15°C° 0 mm 7 mps 741 mmHg 73%
    14:00 +15°C° 0 mm 8 mps 740 mmHg 73%
    15:00 +15°C° 0 mm 8 mps 740 mmHg 72%
    16:00 +15°C° 0 mm 8 mps 739 mmHg 72%
    17:00 +15°C° 0.2 mm 8 mps 740 mmHg 71%
    18:00 +15°C° 0.2 mm 7 mps 740 mmHg 71%
    19:00 +15°C° 0.2 mm 7 mps 740 mmHg 70%
    20:00 +12°C° 0.1 mm 7 mps 741 mmHg 74%
    21:00 +10°C° 0.1 mm 6 mps 742 mmHg 78%
    22:00 +7°C° 0.1 mm 6 mps 743 mmHg 83%
    23:00 +7°C° 0 mm 5 mps 744 mmHg 82%

    Day after tomorrow, 14 November, Thursday

    Time Temperature Precipitation Wind Pressure Humidity
    00:00 +6°C° 0 mm 4 mps 744 mmHg 82%
    01:00 +6°C° 0 mm 4 mps 745 mmHg 82%
    02:00 +5°C° 0 mm 3 mps 745 mmHg 83%
    03:00 +5°C° 0 mm 3 mps 745 mmHg 84%
    04:00 +6°C° 0 mm 2 mps 745 mmHg 84%
    05:00 +6°C° 0 mm 2 mps 745 mmHg 85%
    06:00 +6°C° 0 mm 2 mps 746 mmHg 86%
    07:00 +7°C° 0 mm 1 mps 746 mmHg 86%
    08:00 +8°C° 0 mm 1 mps 746 mmHg 82%
    09:00 +9°C° 0 mm 1 mps 746 mmHg 78%
    10:00 +10°C° 0 mm 1 mps 746 mmHg 74%
    11:00 +11°C° 0 mm 1 mps 746 mmHg 73%
    12:00 +11°C° 0 mm 1 mps 746 mmHg 73%
    13:00 +12°C° 0 mm 1 mps 746 mmHg 72%
    14:00 +12°C° 0 mm 1 mps 746 mmHg 76%
    15:00 +12°C° 0 mm 1 mps 746 mmHg 79%
    16:00 +12°C° 0 mm 2 mps 745 mmHg 83%
    17:00 +10°C° 0 mm 2 mps 746 mmHg 86%
    18:00 +10°C° 0 mm 2 mps 746 mmHg 89%
    19:00 +10°C° 0 mm 2 mps 746 mmHg 92%
    20:00 +10°C° 0.1 mm 2 mps 746 mmHg 93%
    21:00 +10°C° 0.1 mm 2 mps 746 mmHg 94%
    22:00 +10°C° 0.1 mm 2 mps 746 mmHg 94%
    23:00 +10°C° 0 mm 2 mps 746 mmHg 94%

    15 November, Friday

    Time Temperature Precipitation Wind Pressure Humidity
    00:00 +10°C° 0 mm 2 mps 746 mmHg 95%
    01:00 +10°C° 0 mm 2 mps 746 mmHg 95%
    02:00 +10°C° 0 mm 2 mps 746 mmHg 95%
    03:00 +9°C° 0 mm 2 mps 746 mmHg 95%
    04:00 +9°C° 0 mm 2 mps 747 mmHg 95%
    05:00 +9°C° 0 mm 2 mps 747 mmHg 96%
    06:00 +9°C° 0 mm 2 mps 747 mmHg 96%
    07:00 +9°C° 0 mm 2 mps 747 mmHg 96%
    08:00 +10°C° 0 mm 2 mps 747 mmHg 92%
    09:00 +12°C° 0 mm 2 mps 748 mmHg 88%
    10:00 +13°C° 0 mm 2 mps 748 mmHg 84%
    11:00 +13°C° 0 mm 3 mps 748 mmHg 80%
    12:00 +14°C° 0 mm 3 mps 748 mmHg 76%
    13:00 +16°C° 0 mm 3 mps 748 mmHg 71%
    14:00 +16°C° 0 mm 3 mps 748 mmHg 74%
    15:00 +14°C° 0 mm 3 mps 748 mmHg 76%
    16:00 +14°C° 0 mm 3 mps 748 mmHg 78%
    17:00 +13°C° 0 mm 3 mps 748 mmHg 80%
    18:00 +13°C° 0 mm 3 mps 748 mmHg 81%
    19:00 +12°C° 0 mm 3 mps 748 mmHg 83%
    20:00 +12°C° 0 mm 3 mps 749 mmHg 84%
    21:00 +12°C° 0 mm 3 mps 749 mmHg 84%
    22:00 +11°C° 0 mm 3 mps 749 mmHg 85%
    23:00 +11°C° 0 mm 3 mps 749 mmHg 86%

    16 November, Saturday

    Time Temperature Precipitation Wind Pressure Humidity
    00:00 +11°C° 0 mm 3 mps 749 mmHg 87%
    01:00 +11°C° 0 mm 3 mps 749 mmHg 88%
    02:00 +11°C° 0 mm 3 mps 749 mmHg 88%
    03:00 +11°C° 0 mm 3 mps 749 mmHg 87%
    04:00 +11°C° 0 mm 3 mps 749 mmHg 87%
    05:00 +11°C° 0 mm 3 mps 749 mmHg 88%
    06:00 +10°C° 0 mm 3 mps 749 mmHg 89%
    07:00 +10°C° 0 mm 3 mps 749 mmHg 89%
    08:00 +12°C° 0 mm 4 mps 750 mmHg 83%
    09:00 +13°C° 0 mm 4 mps 750 mmHg 78%
    10:00 +14°C° 0 mm 4 mps 751 mmHg 72%
    11:00 +15°C° 0 mm 4 mps 751 mmHg 68%
    12:00 +17°C° 0 mm 4 mps 750 mmHg 64%
    13:00 +18°C° 0 mm 4 mps 750 mmHg 60%
    14:00 +17°C° 0 mm 3 mps 750 mmHg 64%
    15:00 +16°C° 0 mm 3 mps 750 mmHg 68%
    16:00 +16°C° 0 mm 3 mps 750 mmHg 72%
    17:00 +14°C° 0 mm 3 mps 750 mmHg 75%
    18:00 +13°C° 0 mm 3 mps 750 mmHg 77%
    19:00 +13°C° 0 mm 4 mps 750 mmHg 80%
    20:00 +13°C° 0 mm 4 mps 750 mmHg 79%
    21:00 +12°C° 0 mm 4 mps 751 mmHg 79%
    22:00 +12°C° 0 mm 4 mps 751 mmHg 79%
    23:00 +12°C° 0 mm 4 mps 750 mmHg 79%

    17 November, Sunday

    Time Temperature Precipitation Wind Pressure Humidity
    00:00 +12°C° 0 mm 4 mps 750 mmHg 79%
    01:00 +11°C° 0 mm 4 mps 750 mmHg 79%
    02:00 +11°C° 0 mm 4 mps 750 mmHg 80%
    03:00 +11°C° 0 mm 4 mps 749 mmHg 82%
    04:00 +11°C° 0 mm 4 mps 749 mmHg 83%
    05:00 +10°C° 0 mm 4 mps 749 mmHg 84%
    06:00 +10°C° 0 mm 4 mps 749 mmHg 84%
    07:00 +10°C° 0 mm 4 mps 749 mmHg 85%
    08:00 +10°C° 0 mm 5 mps 749 mmHg 80%
    09:00 +13°C° 0 mm 6 mps 749 mmHg 74%
    10:00 +14°C° 0 mm 6 mps 749 mmHg 69%
    11:00 +15°C° 0 mm 6 mps 748 mmHg 65%
    12:00 +15°C° 0 mm 6 mps 748 mmHg 62%
    13:00 +16°C° 0 mm 7 mps 747 mmHg 58%
    14:00 +16°C° 0 mm 6 mps 747 mmHg 61%
    15:00 +15°C° 0 mm 6 mps 747 mmHg 63%
    16:00 +14°C° 0 mm 6 mps 747 mmHg 66%
    17:00 +14°C° 0 mm 6 mps 747 mmHg 68%
    18:00 +13°C° 0 mm 6 mps 747 mmHg 71%
    19:00 +12°C° 0 mm 5 mps 747 mmHg 73%
    20:00 +12°C° 0 mm 5 mps 747 mmHg 75%
    21:00 +12°C° 0 mm 4 mps 747 mmHg 77%
    22:00 +12°C° 0 mm 3 mps 747 mmHg 78%
    23:00 +12°C° 0 mm 3 mps 748 mmHg 79%
    Show more